Teterboro, NJ

9:47 AM EST on November 17, 2019 (GMT -0500)
Teterboro

Weather History for KTEB - September, 2019

Change the Weather History Date:

Monday, September 16, 2019

  Actual Average Record
Temperature  
Mean Temperature 72 °F -  
Max Temperature 78 °F 76 °F 93 °F (1991)
Min Temperature 66 °F 56 °F 46 °F (2001)
Cooling Degree Days 7    
Growing Degree Days 22 (Base 50)    
Moisture  
Dew Point 61 °F    
Average Humidity 67    
Maximum Humidity 79    
Minimum Humidity 56    
Precipitation  
Precipitation 0.00 in - - ()
Sea Level Pressure  
Sea Level Pressure 30.04 in    
Wind  
Wind Speed 2 mph ()    
Max Wind Speed 6 mph    
Max Gust Speed -    
Visibility 10.0 miles    
Events Rain    
Averages and records for this station are not official NWS values.
T = Trace of Precipitation, MM = Missing Value Source: Averaged Metar Reports

Daily Weather History Graph

Daily Weather History Graph

Search for Another Location

Airport or City:

Astronomy

Sep. 16, 2019 Rise Set
Actual Time 6:37 AM EDT 7:04 PM EDT
Civil Twilight 6:10 AM EDT 7:31 PM EDT
Nautical Twilight 5:37 AM EDT 8:03 PM EDT
Astronomical Twilight 5:04 AM EDT 8:36 PM EDT
Moon 8:36 PM EDT (9/16) 8:42 AM EDT (9/16)
Length of Visible Light 13h 21m
Length of Day
12h 26m
Waning Gibbous, 94% of the Moon is Illuminated
Sep 16
Waning Gibbous
Sep 21
Last Quarter
Sep 28
New
Oct 5
First Quarter
Oct 13
Full

Hourly Weather History & Observations

Time (EDT) Temp. Dew Point Humidity Pressure Visibility Wind Dir Wind Speed Gust Speed Precip Events Conditions
12:51 AM 68.0 °F 57.9 °F 70% 30.05 in 10.0 mi Calm Calm - N/A   Clear
1:51 AM 66.9 °F 59.0 °F 76% 30.05 in 10.0 mi Calm Calm - N/A   Partly Cloudy
2:51 AM 68.0 °F 59.0 °F 73% 30.05 in 10.0 mi Calm Calm - N/A   Overcast
3:51 AM 69.1 °F 60.1 °F 73% 30.04 in 10.0 mi Calm Calm - N/A   Overcast
4:51 AM 66.9 °F 60.1 °F 79% 30.04 in 10.0 mi SSW 3.5 mph - N/A   Mostly Cloudy
5:51 AM 69.1 °F 60.1 °F 73% 30.05 in 10.0 mi NNE 3.5 mph - 0.00 in Rain Light Rain
6:51 AM 69.1 °F 60.1 °F 73% 30.05 in 10.0 mi Calm Calm - 0.00 in   Overcast
7:51 AM 70.0 °F 61.0 °F 73% 30.06 in 10.0 mi NNE 3.5 mph - N/A   Overcast
8:51 AM 71.1 °F 60.1 °F 68% 30.07 in 10.0 mi Calm Calm - N/A   Overcast
9:51 AM 72.0 °F 61.0 °F 68% 30.07 in 10.0 mi Variable 4.6 mph - N/A   Overcast
10:51 AM 73.0 °F 61.0 °F 66% 30.06 in 10.0 mi NE 4.6 mph - N/A   Overcast
11:51 AM 73.9 °F 61.0 °F 64% 30.05 in 10.0 mi North 3.5 mph - N/A   Overcast
12:51 PM 75.0 °F 62.1 °F 64% 30.04 in 10.0 mi NE 3.5 mph - N/A   Mostly Cloudy
1:51 PM 77.0 °F 62.1 °F 60% 30.03 in 10.0 mi Calm Calm - N/A   Scattered Clouds
2:51 PM 78.1 °F 61.0 °F 56% 30.01 in 10.0 mi North 4.6 mph - N/A   Mostly Cloudy
3:51 PM 78.1 °F 61.0 °F 56% 29.99 in 10.0 mi West 4.6 mph - N/A   Scattered Clouds
4:51 PM 77.0 °F 61.0 °F 58% 29.99 in 10.0 mi NE 5.8 mph - N/A   Overcast
5:51 PM 75.0 °F 61.0 °F 62% 30.00 in 10.0 mi ENE 5.8 mph - N/A   Overcast
6:51 PM 73.9 °F 60.1 °F 62% 30.00 in 10.0 mi ENE 4.6 mph - N/A   Overcast
7:51 PM 73.9 °F 60.1 °F 62% 30.01 in 10.0 mi NE 3.5 mph - N/A   Overcast
8:51 PM 73.0 °F 60.1 °F 64% 30.02 in 10.0 mi Calm Calm - N/A   Overcast
9:51 PM 72.0 °F 61.0 °F 68% 30.03 in 10.0 mi NNE 3.5 mph - N/A   Mostly Cloudy
10:51 PM 71.1 °F 62.1 °F 73% 30.04 in 10.0 mi NNE 4.6 mph - N/A   Scattered Clouds
11:51 PM 69.1 °F 61.0 °F 75% 30.06 in 10.0 mi NNE 3.5 mph - N/A   Mostly Cloudy